GW2229 Weather Reports


time (UTC)temp
F
wind
direction
speed
knots
gust
knots
rain 1hr
in
rain 24hr
in
rain mn
in
humidity
%
barometer
mb
20260506191907 83 131 3.5 10.4 0.00 0.00 0.00 87 1008.3
20260506191407 83 137 5.2 8.7 0.00 0.00 0.00 87 1008.5
20260506185907 83 141 4.3 7.8 0.00 0.00 0.00 85 1008.8
20260506184906 84 158 4.3 8.7 0.00 0.00 0.00 85 1008.8
20260506184406 84 141 3.5 7.8 0.00 0.00 0.00 85 1008.8
20260506183407 84 140 3.5 7.8 0.00 0.00 0.00 84 1008.8
20260506182907 85 143 3.5 7.0 0.00 0.00 0.00 83 1008.9
20260506182407 85 120 3.5 7.8 0.00 0.00 0.00 83 1008.9
20260506180906 85 135 4.3 7.8 0.00 0.00 0.00 83 1008.9
20260506180406 85 129 4.3 7.0 0.00 0.00 0.00 83 1008.8
20260506175907 85 136 4.3 7.8 0.00 0.00 0.00 84 1008.7
20260506175406 85 160 3.5 7.0 0.00 0.00 0.00 84 1008.7
20260506174906 84 138 4.3 8.7 0.00 0.00 0.00 86 1008.8
20260506174406 84 139 2.6 7.0 0.00 0.00 0.00 89 1008.9
20260506173907 83 161 1.7 2.6 0.00 0.00 0.00 89 1009.0
20260506173406 82 148 1.7 2.6 0.00 0.00 0.00 92 1008.9
20260506172906 81 148 1.7 6.1 0.00 0.00 0.00 93 1008.9
20260506172407 81 170 1.7 4.3 0.00 0.00 0.00 93 1009.1
20260506171906 80 148 1.7 2.6 0.00 0.00 0.00 93 1009.1
20260506171407 80 174 1.7 7.0 0.00 0.00 0.00 93 1009.2
20260506170906 80 143 1.7 5.2 0.00 0.00 0.00 94 1009.1
20260506170406 79 171 2.6 7.8 0.00 0.00 0.00 94 1009.1
20260506165907 79 160 1.7 7.0 0.00 0.00 0.00 95 1009.0
20260506165406 79 173 1.7 4.3 0.00 0.00 0.00 95 1009.0
20260506164406 79 149 2.6 7.0 0.00 0.00 0.00 95 1008.9
20260506163907 79 144 2.6 6.1 0.00 0.00 0.00 95 1009.0
20260506163406 79 158 2.6 8.7 0.00 0.00 0.00 95 1008.9
20260506162907 79 159 1.7 7.8 0.00 0.00 0.00 95 1008.9
20260506161907 79 139 2.6 4.3 0.00 0.00 0.00 95 1008.8
20260506161406 79 150 4.3 5.2 0.00 0.00 0.00 95 1008.8
20260506160906 79 140 2.6 7.8 0.00 0.00 0.00 95 1008.7
20260506160406 79 135 2.6 6.1 0.00 0.00 0.00 95 1008.7
20260506155406 79 144 3.5 7.0 0.00 0.00 0.00 95 1008.5
20260506154907 79 136 2.6 7.0 0.00 0.00 0.00 95 1008.4
20260506153907 79 135 3.5 6.1 0.00 0.00 0.00 94 1008.4
20260506153406 79 155 3.5 7.8 0.00 0.00 0.00 94 1008.3
20260506152906 79 156 2.6 6.1 0.00 0.00 0.00 94 1008.2
20260506152407 79 141 2.6 5.2 0.00 0.00 0.00 94 1008.1
20260506151907 79 148 3.5 7.0 0.00 0.00 0.00 94 1008.1
20260506151406 79 136 2.6 7.0 0.00 0.00 0.00 94 1008.1
20260506150906 79 169 2.6 10.4 0.00 0.00 0.00 94 1008.2
20260506150406 79 143 5.2 10.4 0.00 0.00 0.00 93 1008.2
20260506145906 79 141 4.3 11.3 0.00 0.00 0.00 93 1008.2
20260506145406 79 143 5.2 8.7 0.00 0.00 0.00 93 1008.1
20260506144906 79 141 2.6 10.4 0.00 0.00 0.00 93 1008.3
20260506144406 79 141 3.5 10.4 0.00 0.00 0.00 93 1008.2
20260506143406 79 141 4.3 8.7 0.00 0.00 0.00 93 1008.2
20260506142406 79 140 3.5 6.1 0.00 0.00 0.00 94 1008.2
20260506141906 79 142 4.3 7.0 0.00 0.00 0.00 93 1008.2
20260506141406 79 144 4.3 7.8 0.00 0.00 0.00 93 1008.4
20260506140907 79 139 5.2 8.7 0.00 0.00 0.00 94 1008.2
20260506140406 79 139 5.2 10.4 0.00 0.00 0.00 94 1008.1
20260506135906 79 140 2.6 8.7 0.00 0.00 0.00 94 1008.0
20260506134907 79 137 6.1 10.4 0.00 0.00 0.00 94 1008.0
20260506134406 78 145 5.2 10.4 0.00 0.00 0.00 94 1007.9
20260506133907 78 140 5.2 8.7 0.00 0.00 0.00 95 1007.9
20260506133406 78 149 4.3 7.8 0.00 0.00 0.00 95 1008.0
20260506132906 78 136 5.2 10.4 0.00 0.00 0.00 95 1007.9
20260506132405 78 147 3.5 10.4 0.00 0.00 0.00 95 1008.0
20260506131906 78 135 4.3 7.8 0.00 0.00 0.00 95 1008.0
20260506131405 78 146 3.5 7.0 0.00 0.00 0.00 95 1007.8
20260506130406 78 139 2.6 6.1 0.00 0.00 0.00 95 1007.9
20260506125906 78 138 1.7 5.2 0.00 0.00 0.00 95 1007.9
20260506125405 78 143 4.3 7.0 0.00 0.00 0.00 95 1007.8
20260506124906 78 140 2.6 6.1 0.00 0.00 0.00 95 1007.9
20260506124406 78 140 3.5 7.0 0.00 0.00 0.00 95 1007.8
20260506123906 78 137 2.6 8.7 0.00 0.00 0.00 95 1007.8
20260506122906 78 140 2.6 6.1 0.00 0.00 0.00 95 1007.7
20260506121406 78 137 2.6 7.0 0.00 0.00 0.00 95 1007.6
20260506120405 78 143 2.6 4.3 0.00 0.00 0.00 95 1007.6
20260506115906 78 145 3.5 7.0 0.00 0.00 0.00 95 1007.4
20260506115407 78 143 2.6 7.0 0.00 0.00 0.00 95 1007.5
20260506114405 78 129 4.3 7.8 0.00 0.00 0.00 94 1007.5
20260506113906 78 154 1.7 2.6 0.00 0.00 0.00 94 1007.5
20260506113405 78 154 1.7 4.3 0.00 0.00 0.00 94 1007.5
20260506112906 78 123 0.9 4.3 0.00 0.00 0.00 94 1007.3
20260506112406 78 145 2.6 6.1 0.00 0.00 0.00 94 1007.3
20260506111905 78 121 0.9 4.3 0.00 0.00 0.00 94 1007.4
20260506111405 78 126 1.7 4.3 0.00 0.00 0.00 94 1007.4
20260506110906 78 148 1.7 5.2 0.00 0.00 0.00 94 1007.3
20260506110406 78 140 1.7 4.3 0.00 0.00 0.00 94 1007.4
20260506105906 78 141 1.7 6.1 0.00 0.00 0.00 94 1007.3
20260506105405 78 141 1.7 6.1 0.00 0.00 0.00 94 1007.3
20260506104906 78 143 1.7 6.1 0.00 0.00 0.00 94 1007.3
20260506103906 78 149 1.7 4.3 0.00 0.00 0.00 94 1007.5
20260506103405 78 159 1.7 2.6 0.00 0.00 0.00 94 1007.5
20260506102905 78 159 1.7 4.3 0.00 0.00 0.00 94 1007.5
20260506102405 78 142 1.7 7.0 0.00 0.00 0.00 94 1007.4
20260506101906 78 138 2.6 7.0 0.00 0.00 0.00 93 1007.3
20260506101406 78 152 1.7 4.3 0.00 0.00 0.00 93 1007.4
20260506100906 78 132 2.6 4.3 0.00 0.00 0.00 93 1007.4
20260506100405 78 145 2.6 6.1 0.00 0.00 0.00 93 1007.3
20260506095906 78 135 1.7 2.6 0.00 0.00 0.00 93 1007.4
20260506095406 78 151 1.7 4.3 0.00 0.00 0.00 93 1007.2
20260506094905 78 135 2.6 6.1 0.00 0.00 0.00 93 1007.1
20260506093905 78 132 1.7 4.3 0.00 0.00 0.00 93 1007.1
20260506093406 78 138 2.6 6.1 0.00 0.00 0.00 93 1007.1
20260506092906 78 159 2.6 5.2 0.00 0.00 0.00 93 1007.1
20260506091905 78 148 4.3 7.8 0.00 0.00 0.00 93 1007.1
20260506090906 78 138 3.5 7.8 0.00 0.00 0.00 93 1006.9
20260506090405 78 154 4.3 7.8 0.00 0.00 0.00 93 1006.9
20260506085905 78 139 2.6 7.0 0.00 0.00 0.00 93 1006.9
20260506085406 78 141 4.3 10.4 0.00 0.00 0.00 93 1006.9
20260506084905 78 153 2.6 7.8 0.00 0.00 0.00 93 1006.9
20260506083905 78 153 4.3 8.7 0.00 0.00 0.00 93 1007.0
20260506082405 78 138 3.5 8.7 0.00 0.00 0.00 93 1007.0
20260506081905 78 138 5.2 10.4 0.00 0.00 0.00 93 1007.0
20260506081405 78 154 3.5 10.4 0.00 0.00 0.00 93 1006.9
20260506080906 78 142 4.3 7.8 0.00 0.00 0.00 93 1006.8
20260506080405 78 144 4.3 10.4 0.00 0.00 0.00 93 1006.7
20260506072905 78 149 4.3 8.7 0.00 0.00 0.00 93 1007.1
20260506071905 78 138 5.2 8.7 0.00 0.00 0.00 93 1007.2
20260506071405 78 138 4.3 10.4 0.00 0.00 0.00 93 1007.3
20260506070905 78 152 3.5 7.0 0.00 0.00 0.00 93 1007.5
20260506070405 78 149 4.3 7.8 0.00 0.00 0.00 93 1007.6
20260506062405 78 152 4.3 7.8 0.00 0.00 0.00 93 1007.9
20260506061905 78 143 4.3 10.4 0.00 0.00 0.00 93 1008.1
20260506061405 78 143 3.5 10.4 0.00 0.00 0.00 93 1008.1
20260506060905 78 154 2.6 7.0 0.00 0.00 0.00 93 1008.0
20260506060405 78 151 4.3 7.8 0.00 0.00 0.00 93 1008.1
20260506051405 78 143 4.3 8.7 0.00 0.00 0.00 93 1008.1
20260506050405 78 140 4.3 10.4 0.00 0.00 0.00 93 1008.1
20260506044905 78 152 4.3 8.7 0.00 0.00 0.00 93 1008.1
20260506044404 78 140 5.2 10.4 0.00 0.00 0.00 93 1008.0
20260506043905 78 142 5.2 10.4 0.00 0.00 0.00 93 1008.0
20260506043404 78 150 5.2 10.4 0.00 0.00 0.00 93 1008.1
20260506042404 78 140 6.1 10.4 0.00 0.00 0.00 93 1008.0
20260506041904 78 149 7.0 11.3 0.00 0.00 0.00 93 1007.9
20260506041404 78 147 6.1 10.4 0.00 0.00 0.00 93 1008.0
20260506040905 78 155 5.2 10.4 0.00 0.00 0.00 93 1008.1
20260506040405 78 141 4.3 8.7 0.00 0.00 0.00 93 1008.1
20260506035905 78 145 6.1 10.4 0.00 0.00 0.00 93 1008.0
20260506035404 78 141 5.2 10.4 0.00 0.00 0.00 93 1007.9
20260506034905 78 146 5.2 10.4 0.00 0.00 0.00 93 1007.9
20260506034405 78 146 6.1 11.3 0.00 0.00 0.00 94 1007.7
20260506033904 78 145 5.2 12.2 0.00 0.00 0.00 94 1007.7
20260506033405 78 143 6.1 12.2 0.00 0.00 0.00 93 1007.6
20260506032904 78 134 6.1 12.2 0.00 0.00 0.00 93 1007.4
20260506032405 78 138 5.2 10.4 0.00 0.00 0.00 93 1007.4
20260506030905 78 145 6.1 11.3 0.00 0.00 0.00 93 1007.3
20260506030404 78 139 6.1 11.3 0.00 0.00 0.00 93 1007.3
20260506025904 78 141 7.0 17.4 0.00 0.00 0.00 93 1007.2
20260506025404 78 140 6.1 11.3 0.00 0.00 0.00 93 1007.1
20260506024904 78 145 6.1 10.4 0.00 0.00 0.00 93 1007.1
20260506024405 78 147 6.1 15.6 0.00 0.00 0.00 93 1007.1
20260506023905 78 150 5.2 10.4 0.00 0.00 0.00 93 1007.0
20260506023405 78 152 7.8 14.8 0.00 0.00 0.00 93 1006.9
20260506022904 78 131 7.0 13.9 0.00 0.00 0.00 93 1006.9
20260506021904 78 144 6.1 11.3 0.00 0.00 0.00 93 1006.9
20260506021405 78 142 6.1 11.3 0.00 0.00 0.00 92 1006.7
20260506020904 78 138 7.8 12.2 0.00 0.00 0.00 92 1006.7
20260506020404 78 140 7.8 13.0 0.00 0.00 0.00 92 1006.7
20260506015906 78 138 8.7 13.9 0.00 0.00 0.00 92 1006.6
20260506015404 78 135 8.7 13.0 0.00 0.00 0.00 92 1006.6
20260506014905 78 144 7.8 13.0 0.00 0.00 0.00 92 1006.5
20260506013904 78 144 6.1 12.2 0.00 0.00 0.00 92 1006.5
20260506013404 78 137 7.0 13.9 0.00 0.00 0.00 92 1006.3
20260506012904 78 147 5.2 12.2 0.00 0.00 0.00 92 1006.4
20260506011404 78 156 7.0 15.6 0.00 0.00 0.00 92 1006.1
20260506010904 78 145 9.6 18.2 0.00 0.00 0.00 91 1006.0
20260506010405 78 143 6.1 15.6 0.00 0.00 0.00 91 1006.1
20260506005904 79 139 8.7 13.9 0.00 0.00 0.00 91 1005.9
20260506005404 79 145 6.1 13.0 0.00 0.00 0.00 91 1006.0
20260506004905 79 155 7.0 13.9 0.00 0.00 0.00 91 1005.9
20260506004404 79 147 7.8 17.4 0.00 0.00 0.00 90 1005.9
20260506003904 79 140 7.0 13.9 0.00 0.00 0.00 90 1006.0
20260506003404 79 152 7.0 13.9 0.00 0.00 0.00 90 1005.9
20260506002904 79 155 7.8 12.2 0.00 0.00 0.00 90 1005.9
20260506002404 79 148 5.2 12.2 0.00 0.00 0.00 90 1005.9
20260506001904 79 142 7.8 13.9 0.00 0.00 0.00 90 1005.8
20260506001404 80 144 8.7 13.9 0.00 0.00 0.00 89 1005.8
20260505235406 80 141 7.0 13.0 0.00 0.00 0.00 89 1005.8
20260505234907 80 136 7.8 13.9 0.00 0.00 0.00 88 1005.8
20260505234407 80 138 7.8 14.8 0.00 0.00 0.00 88 1005.8
20260505233907 80 146 4.3 8.7 0.00 0.00 0.00 88 1005.7
20260505233407 81 163 7.8 13.9 0.00 0.00 0.00 87 1005.7
20260505232907 81 155 8.7 14.8 0.00 0.00 0.00 87 1005.7
20260505232408 81 144 7.8 13.9 0.00 0.00 0.00 87 1005.7
20260505231907 81 140 11.3 19.1 0.00 0.00 0.00 86 1005.6
20260505231407 81 149 8.7 17.4 0.00 0.00 0.00 86 1005.7
20260505230907 82 149 8.7 13.9 0.00 0.00 0.00 86 1005.6
20260505225907 82 155 7.8 15.6 0.00 0.00 0.00 84 1005.6
20260505225408 83 144 6.1 13.9 0.00 0.00 0.00 84 1005.6
20260505224907 82 146 7.8 13.0 0.00 0.00 0.00 85 1005.6
20260505224407 82 138 6.1 13.9 0.00 0.00 0.00 85 1005.7
20260505223907 82 145 7.8 15.6 0.00 0.00 0.00 85 1005.7
20260505222908 83 139 8.7 18.2 0.00 0.00 0.00 83 1005.8
20260505222407 83 136 8.7 18.2 0.00 0.00 0.00 83 1005.9
20260505221907 83 143 6.1 13.0 0.00 0.00 0.00 82 1005.9
20260505221407 83 136 8.7 17.4 0.00 0.00 0.00 82 1005.9
20260505220908 84 149 8.7 17.4 0.00 0.00 0.00 82 1006.0
20260505220408 84 155 7.8 15.6 0.00 0.00 0.00 82 1006.0
20260505215907 84 151 7.8 13.0 0.00 0.00 0.00 82 1006.0
20260505215407 84 144 7.8 14.8 0.00 0.00 0.00 82 1006.1
20260505214907 84 135 7.8 18.2 0.00 0.00 0.00 82 1006.2
20260505214407 83 160 6.1 12.2 0.00 0.00 0.00 83 1006.2
20260505213907 83 145 7.8 13.0 0.00 0.00 0.00 82 1006.1
20260505212907 83 146 7.8 13.9 0.00 0.00 0.00 82 1006.3
20260505212407 83 133 9.6 17.4 0.00 0.00 0.00 82 1006.5
20260505211907 84 140 10.4 15.6 0.00 0.00 0.00 82 1006.5
20260505210906 83 147 11.3 17.4 0.00 0.00 0.00 82 1006.6
20260505210408 84 147 12.2 19.1 0.00 0.00 0.00 81 1006.5
20260505205907 84 145 9.6 17.4 0.00 0.00 0.00 82 1006.7
20260505204907 84 139 9.6 17.4 0.00 0.00 0.00 82 1006.9
20260505203907 83 137 9.6 17.4 0.00 0.00 0.00 82 1006.9
20260505203407 83 145 10.4 15.6 0.00 0.00 0.00 82 1007.0
20260505202906 83 145 7.0 13.0 0.00 0.00 0.00 82 1007.2
20260505202407 83 146 7.8 15.6 0.00 0.00 0.00 82 1007.3
20260505201907 84 163 7.8 17.4 0.00 0.00 0.00 81 1007.3
20260505200906 84 145 10.4 15.6 0.00 0.00 0.00 81 1007.6
20260505200407 83 140 8.7 15.6 0.00 0.00 0.00 82 1007.5
20260505195907 83 143 8.7 17.4 0.00 0.00 0.00 83 1007.4
20260505195406 83 148 7.8 12.2 0.00 0.00 0.00 83 1007.4
20260505194907 83 141 8.7 19.1 0.00 0.00 0.00 82 1007.5
20260505194407 83 141 7.8 17.4 0.00 0.00 0.00 82 1007.6
20260505193907 83 152 7.8 18.2 0.00 0.00 0.00 81 1007.7
20260505193406 84 148 8.7 17.4 0.00 0.00 0.00 81 1007.6
20260505192407 84 138 7.8 18.2 0.00 0.00 0.00 81 1007.6